Regional Weather Roundup
Issued by NWS Kansas City/Pleasant Hill, MO

Home | Current Version | Previous Version | Text Only | Print | Product List | Glossary On
Versions: 1 2 3 4 5 6 7 8 9 10 11 12 13 14 15 16 17 18 19 20 21 22 23 24 25 26 27 28 29 30 31 32 33 34 35 36 37 38 39 40 41 42 43 44 45 46 47 48 49 50
000
ASUS43 KEAX 061810
RWREAX

WEATHER ROUNDUP FOR EASTERN KANSAS AND NORTHWEST MISSOURI
NATIONAL WEATHER SERVICE KANSAS CITY/PLEASANT HILL MO
100 PM CDT MON JUL 06 2015

KSZ040-057-103>105-MOZ028-029-037-043-061900-
...KANSAS CITY METROPOLITAN AREA...

CITY           SKY/WX    TMP DP  RH WIND       PRES   REMARKS
K.C. INTL      PTSUNNY   86  76  71 S16G23    29.89S HX  96
6HR MIN TEMP:  74; 6HR MAX TEMP:  86;

K.C. DOWNTOWN  PTSUNNY   89  75  63 S18       29.87F HX  99
6HR MIN TEMP:  77; 6HR MAX TEMP:  89; 6HR PCP: TRACE;

LEES SUMMIT    PTSUNNY   85  74  69 S14       29.92F HX  92
6HR MIN TEMP:  74; 6HR MAX TEMP:  85;

OLATHE - IXD   PTSUNNY   88  74  63 S18G28    29.91F HX  96
6HR MIN TEMP:  73; 6HR MAX TEMP:  88; 6HR PCP: TRACE;

OLATHE - OJC   PTSUNNY   85  74  69 S16G25    29.90F HX  92
6HR MIN TEMP:  73; 6HR MAX TEMP:  86;

LAWRENCE       MOSUNNY   89  75  63 S15       29.87F HX  99

$$

MOZ001>008-011>017-020>025-030>033-038>040-044>046-053-054-061900-
...NORTHERN AND CENTRAL MISSOURI...

CITY           SKY/WX    TMP DP  RH WIND       PRES   REMARKS
ST. JOSEPH     CLOUDY    88  75  65 S12       29.85F HX  97
6HR MIN TEMP:  77; 6HR MAX TEMP:  88;

MOSBY          CLOUDY    86  72  62 S9        29.89S HX  92
WARRENSBURG    CLOUDY    84  72  65 S13G18    29.92F
WHITEMAN AFB   CLOUDY    85  75  73 S16       29.92F HX  93
6HR MIN TEMP:  73; 6HR MAX TEMP:  85;

CLINTON        CLOUDY    84  75  74 S13       29.95F HX  92
SEDALIA        CLOUDY    86  75  69 SW15      29.96F HX  95
6HR MIN TEMP:  74; 6HR MAX TEMP:  87;

WARSAW         NOT AVBL
CHILLICOTHE      N/A     86  76  71 S8        29.90F HX  96
6HR MIN TEMP:  74; 6HR MAX TEMP:  86;

KIRKSVILLE     CLOUDY    84  73  69 SW12      29.93F HX  90
6HR MIN TEMP:  73; 6HR MAX TEMP:  84;


$$

MOZ041-047>049-056>058-063>065-088>090-097-061900-
...EASTERN AND SOUTHERN MISSOURI...

CITY           SKY/WX    TMP DP  RH WIND       PRES   REMARKS
ST. LOUIS INTL PTSUNNY   90  73  57 SW9       29.98F HX  98
6HR MIN TEMP:  76; 6HR MAX TEMP:  90;

SPIRIT OF STL  PTSUNNY   87  75  67 W8        29.96F HX  96
COLUMBIA       CLOUDY    84  75  74 S13       29.97F HX  92
JEFFERSON CITY CLOUDY    84  73  69 S10       29.96F HX  90
ROLLA          LGT RAIN  76  74  93 W5        29.99F FOG
OSAGE BEACH    CLOUDY    84  72  65 S12       29.99S
SPRINGFIELD    CLOUDY    82  72  71 S14       30.00F
BRANSON        CLOUDY    82  72  69 S13       30.05F
JOPLIN         CLOUDY    84  74  71 S17       29.97F HX  91
WEST PLAINS    PTSUNNY   84  72  67 S9        30.06F

$$

IAZ060-094-KSZ022-034>040-054-083-096-NEZ052-066-093-061900-
...KANSAS...SOUTHEAST NEBRASKA AND IOWA...

CITY           SKY/WX    TMP DP  RH WIND       PRES   REMARKS
TOPEKA         SUNNY     90  73  57 S15       29.86F HX  98
6HR MIN TEMP:  77; 6HR MAX TEMP:  90;

MANHATTAN      MOSUNNY   92  71  50 SW7       29.85F HX  98
EMPORIA        MOSUNNY   90  73  57 S16G24    29.88F HX  98
CHANUTE        MOSUNNY   88  75  65 S14G31    29.93F HX  97
WICHITA        PTSUNNY   92  69  47 S21G28    29.87F HX  97
OMAHA          LGT RAIN  75  73  93 N6        29.91R FOG
LINCOLN        CLOUDY    75  72  90 N10       29.93S
FALLS CITY     CLOUDY    85  73  67 SW7       29.86S HX  91
LAMONI         CLOUDY    81  73  76 S5        29.89F
DES MOINES     LGT RAIN  78  72  81 S6        29.85F

$$




USA.gov is the U.S. government's official web portal to all federal, state and local government web resources and services.